Location: U-46 Planetarium
(42.0300°N, 88.2740°W)
Time: 06:40:34
(UTC-06:00)

Cosmos 2263 Rocket - Visible Passes

Search period start: 22 January 2019 00:00
Search period end: 01 February 2019 00:00
Orbit: 822 x 850 km, 71.0° (Epoch: 21 January)

Date Brightness Start Highest point End Pass type
(mag) Time Alt. Az. Time Alt. Az. Time Alt. Az.
25 Jan 4.6 06:35:52 10° NNE 06:38:57 15° NE 06:42:01 10° E visible
26 Jan 4.6 06:19:20 10° NNE 06:22:07 14° NE 06:24:54 10° ENE visible
27 Jan 4.7 06:02:51 10° NNE 06:05:17 13° NE 06:07:43 10° ENE visible
28 Jan 4.7 05:46:25 10° NNE 05:48:27 12° NE 05:50:28 10° ENE visible
29 Jan 4.8 05:30:05 10° NNE 05:31:36 11° NE 05:33:06 10° ENE visible
30 Jan 5.0 05:14:07 10° NE 05:14:45 10° NE 05:15:22 10° NE visible
